TimeHST,TemperatureF,Dew PointF,Humidity,Sea Level PressureIn,VisibilityMPH,Wind Direction,Wind SpeedMPH,Gust SpeedMPH,PrecipitationIn,Events,Conditions,WindDirDegrees,DateUTC
12:54 AM,69.1,63.0,81,30.10,10.0,NE,13.8,-,0.00,,Overcast,50,2012-05-04 10:54:00
1:54 AM,69.1,63.0,81,30.08,10.0,NE,10.4,-,N/A,,Scattered Clouds,40,2012-05-04 11:54:00
2:54 AM,69.1,64.0,84,30.07,7.0,NE,10.4,-,0.00,Rain,Light Rain,50,2012-05-04 12:54:00
3:54 AM,70.0,64.9,84,30.06,10.0,NE,12.7,-,0.01,Rain,Light Rain,50,2012-05-04 13:54:00
4:54 AM,69.1,64.0,84,30.07,10.0,NE,10.4,-,0.00,,Scattered Clouds,50,2012-05-04 14:54:00
5:54 AM,69.1,64.0,84,30.08,10.0,NE,9.2,-,0.00,Rain,Light Rain,50,2012-05-04 15:54:00
6:54 AM,69.1,64.9,87,30.10,10.0,ENE,10.4,-,0.03,,Overcast,60,2012-05-04 16:54:00
7:54 AM,70.0,64.9,84,30.12,10.0,NE,12.7,-,0.00,Rain,Light Rain,40,2012-05-04 17:54:00
8:51 AM,73.4,66.2,78,30.11,10.0,NE,15.0,25.3,0.01,,Mostly Cloudy,50,2012-05-04 18:51:00
8:54 AM,73.0,66.9,81,30.12,10.0,NE,16.1,24.2,0.01,,Scattered Clouds,50,2012-05-04 18:54:00
9:54 AM,75.0,66.0,73,30.13,9.0,NE,16.1,24.2,N/A,,Scattered Clouds,50,2012-05-04 19:54:00
10:54 AM,73.0,66.0,79,30.13,8.0,NE,16.1,25.3,0.01,Rain,Light Rain,50,2012-05-04 20:54:00
11:54 AM,78.1,64.0,62,30.11,10.0,NE,19.6,31.1,0.00,,Scattered Clouds,50,2012-05-04 21:54:00
12:54 PM,81.0,64.0,56,30.09,10.0,NE,24.2,31.1,0.00,,Scattered Clouds,50,2012-05-04 22:54:00
1:54 PM,79.0,64.0,60,30.08,10.0,NE,20.7,31.1,N/A,,Scattered Clouds,50,2012-05-04 23:54:00
2:54 PM,81.0,64.0,56,30.05,10.0,ENE,20.7,31.1,N/A,,Scattered Clouds,60,2012-05-05 00:54:00
3:54 PM,77.0,63.0,62,30.04,10.0,ENE,24.2,32.2,N/A,,Partly Cloudy,70,2012-05-05 01:54:00
4:54 PM,75.9,63.0,64,30.04,10.0,ENE,24.2,35.7,N/A,,Scattered Clouds,70,2012-05-05 02:54:00
5:54 PM,75.0,62.1,64,30.05,10.0,ENE,16.1,26.5,N/A,,Scattered Clouds,70,2012-05-05 03:54:00
6:54 PM,72.0,61.0,68,30.06,10.0,ENE,19.6,27.6,N/A,,Scattered Clouds,60,2012-05-05 04:54:00
7:54 PM,71.1,61.0,70,30.09,10.0,ENE,12.7,-,N/A,,Scattered Clouds,60,2012-05-05 05:54:00
8:54 PM,71.1,61.0,70,30.12,10.0,ENE,9.2,-,N/A,,Scattered Clouds,70,2012-05-05 06:54:00
9:54 PM,70.0,61.0,73,30.13,10.0,ENE,8.1,-,N/A,,Clear,70,2012-05-05 07:54:00
10:54 PM,71.1,62.1,73,30.14,10.0,ENE,10.4,-,N/A,,Clear,70,2012-05-05 08:54:00
11:54 PM,69.1,62.1,78,30.12,10.0,NE,13.8,-,N/A,,Partly Cloudy,50,2012-05-05 09:54:00